Year,Month,Day,Hour,Minute,Value (Times are PST for temperature in C)
2015,08,20,00,00,18.10
2015,08,20,00,01,18.10
2015,08,20,00,02,18.10
2015,08,20,00,03,18.10
2015,08,20,00,04,18.10
2015,08,20,00,05,18.10
2015,08,20,00,06,18.00
2015,08,20,00,07,18.00
2015,08,20,00,08,18.00
2015,08,20,00,09,18.00
2015,08,20,00,10,18.00
2015,08,20,00,11,17.90
2015,08,20,00,12,17.90
2015,08,20,00,13,17.90
2015,08,20,00,14,17.90
2015,08,20,00,15,17.90
2015,08,20,00,16,17.90
2015,08,20,00,17,17.90
2015,08,20,00,18,17.90
2015,08,20,00,19,17.90
2015,08,20,00,20,17.80
2015,08,20,00,21,17.80
2015,08,20,00,22,17.80
2015,08,20,00,23,17.80
2015,08,20,00,24,17.80
2015,08,20,00,25,17.80
2015,08,20,00,26,17.80
2015,08,20,00,27,17.80
2015,08,20,00,28,17.80
2015,08,20,00,29,17.80
2015,08,20,00,30,17.80
2015,08,20,00,31,17.70
2015,08,20,00,32,17.70
2015,08,20,00,33,17.70
2015,08,20,00,34,17.70
2015,08,20,00,35,17.70
2015,08,20,00,36,17.70
2015,08,20,00,37,17.70
2015,08,20,00,38,17.70
2015,08,20,00,39,17.70
2015,08,20,00,40,17.70
2015,08,20,00,41,17.70
2015,08,20,00,42,17.70
2015,08,20,00,43,17.70
2015,08,20,00,44,17.60
2015,08,20,00,45,17.60
2015,08,20,00,46,17.60
2015,08,20,00,47,17.60
2015,08,20,00,48,17.60
2015,08,20,00,49,17.60
2015,08,20,00,50,17.60
2015,08,20,00,51,17.60
2015,08,20,00,52,17.60
2015,08,20,00,53,17.50
2015,08,20,00,54,17.50
2015,08,20,00,55,17.50
2015,08,20,00,56,17.50
2015,08,20,00,57,17.50
2015,08,20,00,58,17.50
2015,08,20,00,59,17.40
2015,08,20,01,00,17.40
2015,08,20,01,01,17.40
2015,08,20,01,02,17.40
2015,08,20,01,03,17.40
2015,08,20,01,04,17.40
2015,08,20,01,05,17.40
2015,08,20,01,06,17.40
2015,08,20,01,07,17.40
2015,08,20,01,08,17.40
2015,08,20,01,09,17.40
2015,08,20,01,10,17.40
2015,08,20,01,11,17.40
2015,08,20,01,12,17.30
2015,08,20,01,13,17.30
2015,08,20,01,14,17.30
2015,08,20,01,15,17.30
2015,08,20,01,16,17.30
2015,08,20,01,17,17.30
2015,08,20,01,18,17.30
2015,08,20,01,19,17.30
2015,08,20,01,20,17.30
2015,08,20,01,21,17.30
2015,08,20,01,22,17.30
2015,08,20,01,23,17.30
2015,08,20,01,24,17.30
2015,08,20,01,25,17.30
2015,08,20,01,26,17.30
2015,08,20,01,27,17.20
2015,08,20,01,28,17.20
2015,08,20,01,29,17.20
2015,08,20,01,30,17.20
2015,08,20,01,31,17.20
2015,08,20,01,32,17.20
2015,08,20,01,33,17.20
2015,08,20,01,34,17.20
2015,08,20,01,35,17.20
2015,08,20,01,36,17.20
2015,08,20,01,37,17.20
2015,08,20,01,38,17.20
2015,08,20,01,39,17.10
2015,08,20,01,40,17.10
2015,08,20,01,41,17.10
2015,08,20,01,42,17.10
2015,08,20,01,43,17.00
2015,08,20,01,44,17.00
2015,08,20,01,45,17.00
2015,08,20,01,46,16.90
2015,08,20,01,47,16.90
2015,08,20,01,48,16.90
2015,08,20,01,49,16.80
2015,08,20,01,50,16.80
2015,08,20,01,51,16.80
2015,08,20,01,52,16.80
2015,08,20,01,53,16.70
2015,08,20,01,54,16.70
2015,08,20,01,55,16.70
2015,08,20,01,56,16.60
2015,08,20,01,57,16.60
2015,08,20,01,58,16.60
2015,08,20,01,59,16.60
2015,08,20,02,00,16.50
2015,08,20,02,01,16.50
2015,08,20,02,02,16.50
2015,08,20,02,03,16.50
2015,08,20,02,04,16.50
2015,08,20,02,05,16.40
2015,08,20,02,06,16.40
2015,08,20,02,07,16.50
2015,08,20,02,08,16.50
2015,08,20,02,09,16.50
2015,08,20,02,10,16.50
2015,08,20,02,11,16.50
2015,08,20,02,12,16.50
2015,08,20,02,13,16.50
2015,08,20,02,14,16.50
2015,08,20,02,15,16.50
2015,08,20,02,16,16.50
2015,08,20,02,17,16.50
2015,08,20,02,18,16.50
2015,08,20,02,19,16.50
2015,08,20,02,20,16.40
2015,08,20,02,21,16.40
2015,08,20,02,22,16.40
2015,08,20,02,23,16.40
2015,08,20,02,24,16.40
2015,08,20,02,25,16.40
2015,08,20,02,26,16.40
2015,08,20,02,27,16.40
2015,08,20,02,28,16.40
2015,08,20,02,29,16.40
2015,08,20,02,30,16.40
2015,08,20,02,31,16.40
2015,08,20,02,32,16.40
2015,08,20,02,33,16.40
2015,08,20,02,34,16.40
2015,08,20,02,35,16.40
2015,08,20,02,36,16.50
2015,08,20,02,37,16.50
2015,08,20,02,38,16.50
2015,08,20,02,39,16.50
2015,08,20,02,40,16.50
2015,08,20,02,41,16.50
2015,08,20,02,42,16.50
2015,08,20,02,43,16.50
2015,08,20,02,44,16.50
2015,08,20,02,45,16.60
2015,08,20,02,46,16.60
2015,08,20,02,47,16.50
2015,08,20,02,48,16.50
2015,08,20,02,49,16.50
2015,08,20,02,50,16.50
2015,08,20,02,51,16.50
2015,08,20,02,52,16.50
2015,08,20,02,53,16.50
2015,08,20,02,54,16.40
2015,08,20,02,55,16.40
2015,08,20,02,56,16.40
2015,08,20,02,57,16.40
2015,08,20,02,58,16.40
2015,08,20,02,59,16.30
2015,08,20,03,00,16.30
2015,08,20,03,01,16.30
2015,08,20,03,02,16.30
2015,08,20,03,03,16.30
2015,08,20,03,04,16.30
2015,08,20,03,05,16.30
2015,08,20,03,06,16.30
2015,08,20,03,07,16.20
2015,08,20,03,08,16.20
2015,08,20,03,09,16.20
2015,08,20,03,10,16.10
2015,08,20,03,11,16.10
2015,08,20,03,12,16.10
2015,08,20,03,13,16.00
2015,08,20,03,14,16.00
2015,08,20,03,15,15.90
2015,08,20,03,16,15.90
2015,08,20,03,17,15.90
2015,08,20,03,18,15.90
2015,08,20,03,19,15.80
2015,08,20,03,20,15.80
2015,08,20,03,21,15.80
2015,08,20,03,22,15.80
2015,08,20,03,23,15.80
2015,08,20,03,24,15.80
2015,08,20,03,25,15.80
2015,08,20,03,26,15.80
2015,08,20,03,27,15.80
2015,08,20,03,28,15.80
2015,08,20,03,29,15.80
2015,08,20,03,30,15.80
2015,08,20,03,31,15.80
2015,08,20,03,32,15.80
2015,08,20,03,33,15.80
2015,08,20,03,34,15.80
2015,08,20,03,35,15.80
2015,08,20,03,36,15.80
2015,08,20,03,37,15.80
2015,08,20,03,38,15.80
2015,08,20,03,39,15.80
2015,08,20,03,40,15.80
2015,08,20,03,41,15.80
2015,08,20,03,42,15.70
2015,08,20,03,43,15.70
2015,08,20,03,44,15.70
2015,08,20,03,45,15.70
2015,08,20,03,46,15.70
2015,08,20,03,47,15.60
2015,08,20,03,48,15.60
2015,08,20,03,49,15.60
2015,08,20,03,50,15.60
2015,08,20,03,51,15.50
2015,08,20,03,52,15.50
2015,08,20,03,53,15.40
2015,08,20,03,54,15.40
2015,08,20,03,55,15.40
2015,08,20,03,56,15.40
2015,08,20,03,57,15.30
2015,08,20,03,58,15.30
2015,08,20,03,59,15.30
2015,08,20,04,00,15.30
2015,08,20,04,01,15.20
2015,08,20,04,02,15.20
2015,08,20,04,03,15.20
2015,08,20,04,04,15.10
2015,08,20,04,05,15.10
2015,08,20,04,06,15.10
2015,08,20,04,07,15.10
2015,08,20,04,08,15.00
2015,08,20,04,09,15.00
2015,08,20,04,10,15.00
2015,08,20,04,11,14.90
2015,08,20,04,12,14.90
2015,08,20,04,13,14.90
2015,08,20,04,14,14.80
2015,08,20,04,15,14.80
2015,08,20,04,16,14.80
2015,08,20,04,17,14.80
2015,08,20,04,18,14.80
2015,08,20,04,19,14.70
2015,08,20,04,20,14.70
2015,08,20,04,21,14.70
2015,08,20,04,22,14.60
2015,08,20,04,23,14.60
2015,08,20,04,24,14.60
2015,08,20,04,25,14.60
2015,08,20,04,26,14.50
2015,08,20,04,27,14.50
2015,08,20,04,28,14.50
2015,08,20,04,29,14.40
2015,08,20,04,30,14.40
2015,08,20,04,31,14.40
2015,08,20,04,32,14.40
2015,08,20,04,33,14.30
2015,08,20,04,34,14.30
2015,08,20,04,35,14.30
2015,08,20,04,36,14.30
2015,08,20,04,37,14.30
2015,08,20,04,38,14.20
2015,08,20,04,39,14.20
2015,08,20,04,40,14.20
2015,08,20,04,41,14.20
2015,08,20,04,42,14.10
2015,08,20,04,43,14.10
2015,08,20,04,44,14.10
2015,08,20,04,45,14.10
2015,08,20,04,46,14.10
2015,08,20,04,47,14.00
2015,08,20,04,48,14.00
2015,08,20,04,49,13.90
2015,08,20,04,50,13.90
2015,08,20,04,51,13.90
2015,08,20,04,52,13.90
2015,08,20,04,53,13.80
2015,08,20,04,54,13.80
2015,08,20,04,55,13.80
2015,08,20,04,56,13.80
2015,08,20,04,57,13.80
2015,08,20,04,58,13.70
2015,08,20,04,59,13.70
2015,08,20,05,00,13.70
2015,08,20,05,01,13.70
2015,08,20,05,02,13.70
2015,08,20,05,03,13.70
2015,08,20,05,04,13.60
2015,08,20,05,05,13.60
2015,08,20,05,06,13.60
2015,08,20,05,07,13.60
2015,08,20,05,08,13.60
2015,08,20,05,09,13.60
2015,08,20,05,10,13.50
2015,08,20,05,11,13.50
2015,08,20,05,12,13.50
2015,08,20,05,13,13.50
2015,08,20,05,14,13.40
2015,08,20,05,15,13.40
2015,08,20,05,16,13.40
2015,08,20,05,17,13.40
2015,08,20,05,18,13.40
2015,08,20,05,19,13.40
2015,08,20,05,20,13.40
2015,08,20,05,21,13.30
2015,08,20,05,22,13.30
2015,08,20,05,23,13.30
2015,08,20,05,24,13.30
2015,08,20,05,25,13.30
2015,08,20,05,26,13.30
2015,08,20,05,27,13.30
2015,08,20,05,28,13.30
2015,08,20,05,29,13.30
2015,08,20,05,30,13.30
2015,08,20,05,31,13.30
2015,08,20,05,32,13.30
2015,08,20,05,33,13.30
2015,08,20,05,34,13.30
2015,08,20,05,35,13.30
2015,08,20,05,36,13.30
2015,08,20,05,37,13.20
2015,08,20,05,38,13.20
2015,08,20,05,39,13.20
2015,08,20,05,40,13.20
2015,08,20,05,41,13.20
2015,08,20,05,42,13.10
2015,08,20,05,43,13.10
2015,08,20,05,44,13.10
2015,08,20,05,45,13.10
2015,08,20,05,46,13.10
2015,08,20,05,47,13.10
2015,08,20,05,48,13.10
2015,08,20,05,49,13.00
2015,08,20,05,50,13.00
2015,08,20,05,51,13.00
2015,08,20,05,52,12.90
2015,08,20,05,53,12.90
2015,08,20,05,54,12.90
2015,08,20,05,55,12.90
2015,08,20,05,56,12.90
2015,08,20,05,57,12.90
2015,08,20,05,58,12.90
2015,08,20,05,59,12.80
2015,08,20,06,00,12.80
2015,08,20,06,01,12.80
2015,08,20,06,02,12.80
2015,08,20,06,03,12.80
2015,08,20,06,04,12.80
2015,08,20,06,05,12.80
2015,08,20,06,06,12.80
2015,08,20,06,07,12.80
2015,08,20,06,08,12.80
2015,08,20,06,09,12.80
2015,08,20,06,10,12.80
2015,08,20,06,11,12.80
2015,08,20,06,12,12.70
2015,08,20,06,13,12.70
2015,08,20,06,14,12.70
2015,08,20,06,15,12.70
2015,08,20,06,16,12.70
2015,08,20,06,17,12.70
2015,08,20,06,18,12.70
2015,08,20,06,19,12.70
2015,08,20,06,20,12.80
2015,08,20,06,21,12.80
2015,08,20,06,22,12.80
2015,08,20,06,23,12.80
2015,08,20,06,24,12.80
2015,08,20,06,25,12.80
2015,08,20,06,26,12.80
2015,08,20,06,27,12.80
2015,08,20,06,28,12.80
2015,08,20,06,29,12.80
2015,08,20,06,30,12.80
2015,08,20,06,31,12.90
2015,08,20,06,32,12.90
2015,08,20,06,33,12.90
2015,08,20,06,34,12.90
2015,08,20,06,35,12.90
2015,08,20,06,36,12.90
2015,08,20,06,37,12.90
2015,08,20,06,38,12.90
2015,08,20,06,39,12.90
2015,08,20,06,40,12.90
2015,08,20,06,41,12.90
2015,08,20,06,42,12.90
2015,08,20,06,43,12.90
2015,08,20,06,44,12.90
2015,08,20,06,45,12.90
2015,08,20,06,46,12.90
2015,08,20,06,47,12.90
2015,08,20,06,48,12.90
2015,08,20,06,49,12.90
2015,08,20,06,50,12.90
2015,08,20,06,51,12.90
2015,08,20,06,52,12.90
2015,08,20,06,53,12.90
2015,08,20,06,54,12.90
2015,08,20,06,55,12.90
2015,08,20,06,56,12.90
2015,08,20,06,57,12.90
2015,08,20,06,58,12.90
2015,08,20,06,59,12.90
2015,08,20,07,00,12.90
2015,08,20,07,01,12.90
2015,08,20,07,02,12.90
2015,08,20,07,03,12.90
2015,08,20,07,04,12.90
2015,08,20,07,05,12.90
2015,08,20,07,06,12.90
2015,08,20,07,07,12.90
2015,08,20,07,08,12.90
2015,08,20,07,09,12.90
2015,08,20,07,10,12.90
2015,08,20,07,11,12.90
2015,08,20,07,12,12.90
2015,08,20,07,13,12.90
2015,08,20,07,14,12.90
2015,08,20,07,15,12.90
2015,08,20,07,16,12.90
2015,08,20,07,17,12.90
2015,08,20,07,18,12.90
2015,08,20,07,19,12.90
2015,08,20,07,20,12.90
2015,08,20,07,21,13.00
2015,08,20,07,22,13.00
2015,08,20,07,23,13.00
2015,08,20,07,24,13.00
2015,08,20,07,25,13.00
2015,08,20,07,26,13.00
2015,08,20,07,27,13.00
2015,08,20,07,28,13.10
2015,08,20,07,29,13.10
2015,08,20,07,30,13.10
2015,08,20,07,31,13.10
2015,08,20,07,32,13.10
2015,08,20,07,33,13.20
2015,08,20,07,34,13.20
2015,08,20,07,35,13.30
2015,08,20,07,36,13.30
2015,08,20,07,37,13.40
2015,08,20,07,38,13.50
2015,08,20,07,39,13.60
2015,08,20,07,40,13.70
2015,08,20,07,41,13.80
2015,08,20,07,42,13.80
2015,08,20,07,43,13.90
2015,08,20,07,44,13.90
2015,08,20,07,45,14.00
2015,08,20,07,46,14.10
2015,08,20,07,47,14.10
2015,08,20,07,48,14.20
2015,08,20,07,49,14.30
2015,08,20,07,50,14.30
2015,08,20,07,51,14.40
2015,08,20,07,52,14.50
2015,08,20,07,53,14.50
2015,08,20,07,54,14.60
2015,08,20,07,55,14.80
2015,08,20,07,56,14.80
2015,08,20,07,57,14.90
2015,08,20,07,58,15.00
2015,08,20,07,59,15.00
2015,08,20,08,00,15.10
2015,08,20,08,01,15.20
2015,08,20,08,02,15.20
2015,08,20,08,03,15.30
2015,08,20,08,04,15.30
2015,08,20,08,05,15.40
2015,08,20,08,06,15.50
2015,08,20,08,07,15.60
2015,08,20,08,08,15.60
2015,08,20,08,09,15.70
2015,08,20,08,10,15.80
2015,08,20,08,11,15.80
2015,08,20,08,12,15.90
2015,08,20,08,13,16.00
2015,08,20,08,14,16.00
2015,08,20,08,15,16.10
2015,08,20,08,16,16.10
2015,08,20,08,17,16.20
2015,08,20,08,18,16.30
2015,08,20,08,19,16.30
2015,08,20,08,20,16.40
2015,08,20,08,21,16.40
2015,08,20,08,22,16.40
2015,08,20,08,23,16.50
2015,08,20,08,24,16.50
2015,08,20,08,25,16.60
2015,08,20,08,26,16.60
2015,08,20,08,27,16.60
2015,08,20,08,28,16.70
2015,08,20,08,29,16.70
2015,08,20,08,30,16.70
2015,08,20,08,31,16.80
2015,08,20,08,32,16.80
2015,08,20,08,33,16.80
2015,08,20,08,34,16.80
2015,08,20,08,35,16.90
2015,08,20,08,36,16.90
2015,08,20,08,37,16.90
2015,08,20,08,38,16.90
2015,08,20,08,39,16.90
2015,08,20,08,40,16.90
2015,08,20,08,41,17.00
2015,08,20,08,42,17.00
2015,08,20,08,43,17.10
2015,08,20,08,44,17.10
2015,08,20,08,45,17.20
2015,08,20,08,46,17.20
2015,08,20,08,47,17.30
2015,08,20,08,48,17.30
2015,08,20,08,49,17.30
2015,08,20,08,50,17.40
2015,08,20,08,51,17.40
2015,08,20,08,52,17.40
2015,08,20,08,53,17.40
2015,08,20,08,54,17.50
2015,08,20,08,55,17.60
2015,08,20,08,56,17.60
2015,08,20,08,57,17.70
2015,08,20,08,58,17.90
2015,08,20,08,59,18.00
2015,08,20,09,00,18.00
2015,08,20,09,01,18.00
2015,08,20,09,02,18.00
2015,08,20,09,03,18.00
2015,08,20,09,04,17.90
2015,08,20,09,05,17.90
2015,08,20,09,06,17.90
2015,08,20,09,07,17.80
2015,08,20,09,08,17.80
2015,08,20,09,09,17.80
2015,08,20,09,10,17.80
2015,08,20,09,11,17.80
2015,08,20,09,12,17.80
2015,08,20,09,13,17.80
2015,08,20,09,14,17.90
2015,08,20,09,15,17.90
2015,08,20,09,16,17.90
2015,08,20,09,17,18.00
2015,08,20,09,18,18.00
2015,08,20,09,19,18.10
2015,08,20,09,20,18.10
2015,08,20,09,21,18.10
2015,08,20,09,22,18.20
2015,08,20,09,23,18.20
2015,08,20,09,24,18.20
2015,08,20,09,25,18.20
2015,08,20,09,26,18.20
2015,08,20,09,27,18.20
2015,08,20,09,28,18.20
2015,08,20,09,29,18.20
2015,08,20,09,30,18.20
2015,08,20,09,31,18.20
2015,08,20,09,32,18.20
2015,08,20,09,33,18.20
2015,08,20,09,34,18.20
2015,08,20,09,35,18.20
2015,08,20,09,36,18.20
2015,08,20,09,37,18.20
2015,08,20,09,38,18.20
2015,08,20,09,39,18.20
2015,08,20,09,40,18.20
2015,08,20,09,41,18.20
2015,08,20,09,42,18.20
2015,08,20,09,43,18.30
2015,08,20,09,44,18.30
2015,08,20,09,45,18.30
2015,08,20,09,46,18.30
2015,08,20,09,47,18.30
2015,08,20,09,48,18.30
2015,08,20,09,49,18.30
2015,08,20,09,50,18.30
2015,08,20,09,51,18.30
2015,08,20,09,52,18.30
2015,08,20,09,53,18.30
2015,08,20,09,54,18.30
2015,08,20,09,55,18.30
2015,08,20,09,56,18.30
2015,08,20,09,57,18.30
2015,08,20,09,58,18.40
2015,08,20,09,59,18.40
2015,08,20,10,00,18.40
2015,08,20,10,01,18.40
2015,08,20,10,02,18.50
2015,08,20,10,03,18.60
2015,08,20,10,04,18.60
2015,08,20,10,05,18.70
2015,08,20,10,06,18.70
2015,08,20,10,07,18.80
2015,08,20,10,08,18.80
2015,08,20,10,09,18.80
2015,08,20,10,10,18.80
2015,08,20,10,11,18.80
2015,08,20,10,12,18.80
2015,08,20,10,13,18.80
2015,08,20,10,14,18.80
2015,08,20,10,15,18.80
2015,08,20,10,16,18.80
2015,08,20,10,17,18.80
2015,08,20,10,18,18.80
2015,08,20,10,19,18.90
2015,08,20,10,20,18.90
2015,08,20,10,21,18.90
2015,08,20,10,22,18.90
2015,08,20,10,23,18.90
2015,08,20,10,24,18.90
2015,08,20,10,25,18.90
2015,08,20,10,26,18.90
2015,08,20,10,27,18.90
2015,08,20,10,28,18.90
2015,08,20,10,29,18.90
2015,08,20,10,30,18.90
2015,08,20,10,31,18.90
2015,08,20,10,32,19.00
2015,08,20,10,33,19.00
2015,08,20,10,34,19.00
2015,08,20,10,35,19.00
2015,08,20,10,36,19.00
2015,08,20,10,37,18.90
2015,08,20,10,38,18.80
2015,08,20,10,39,18.80
2015,08,20,10,40,18.80
2015,08,20,10,41,18.90
2015,08,20,10,42,19.00
2015,08,20,10,43,19.00
2015,08,20,10,44,19.00
2015,08,20,10,45,19.10
2015,08,20,10,46,19.10
2015,08,20,10,47,19.10
2015,08,20,10,48,19.20
2015,08,20,10,49,19.20
2015,08,20,10,50,19.20
2015,08,20,10,51,19.20
2015,08,20,10,52,19.20
2015,08,20,10,53,19.30
2015,08,20,10,54,19.40
2015,08,20,10,55,19.40
2015,08,20,10,56,19.50
2015,08,20,10,57,19.60
2015,08,20,10,58,19.60
2015,08,20,10,59,19.60
2015,08,20,11,00,19.60
2015,08,20,11,01,19.50
2015,08,20,11,02,19.40
2015,08,20,11,03,19.30
2015,08,20,11,04,19.30
2015,08,20,11,05,19.20
2015,08,20,11,06,19.20
2015,08,20,11,07,19.20
2015,08,20,11,08,19.10
2015,08,20,11,09,19.10
2015,08,20,11,10,19.10
2015,08,20,11,11,19.10
2015,08,20,11,12,19.10
2015,08,20,11,13,19.10
2015,08,20,11,14,19.10
2015,08,20,11,15,19.20
2015,08,20,11,16,19.20
2015,08,20,11,17,19.20
2015,08,20,11,18,19.20
2015,08,20,11,19,19.30
2015,08,20,11,20,19.40
2015,08,20,11,21,19.50
2015,08,20,11,22,19.60
2015,08,20,11,23,19.70
2015,08,20,11,24,19.70
2015,08,20,11,25,19.80
2015,08,20,11,26,19.90
2015,08,20,11,27,19.90
2015,08,20,11,28,20.00
2015,08,20,11,29,20.00
2015,08,20,11,30,20.00
2015,08,20,11,31,20.00
2015,08,20,11,32,20.00
2015,08,20,11,33,20.10
2015,08,20,11,34,20.10
2015,08,20,11,35,20.20
2015,08,20,11,36,20.30
2015,08,20,11,37,20.40
2015,08,20,11,38,20.50
2015,08,20,11,39,20.60
2015,08,20,11,40,20.60
2015,08,20,11,41,20.60
2015,08,20,11,42,20.50
2015,08,20,11,43,20.30
2015,08,20,11,44,20.20
2015,08,20,11,45,20.20
2015,08,20,11,46,20.20
2015,08,20,11,47,20.20
2015,08,20,11,48,20.20
2015,08,20,11,49,20.20
2015,08,20,11,50,20.30
2015,08,20,11,51,20.30
2015,08,20,11,52,20.30
2015,08,20,11,53,20.20
2015,08,20,11,54,20.20
2015,08,20,11,55,20.20
2015,08,20,11,56,20.20
2015,08,20,11,57,20.10
2015,08,20,11,58,20.00
2015,08,20,11,59,20.00
2015,08,20,12,00,20.10
2015,08,20,12,01,20.20
2015,08,20,12,02,20.30
2015,08,20,12,03,20.30
2015,08,20,12,04,20.20
2015,08,20,12,05,20.20
2015,08,20,12,06,20.20
2015,08,20,12,07,20.10
2015,08,20,12,08,20.00
2015,08,20,12,09,20.00
2015,08,20,12,10,19.90
2015,08,20,12,11,20.00
2015,08,20,12,12,20.10
2015,08,20,12,13,20.00
2015,08,20,12,14,20.10
2015,08,20,12,15,20.10
2015,08,20,12,16,20.20
2015,08,20,12,17,20.40
2015,08,20,12,18,20.50
2015,08,20,12,19,20.60
2015,08,20,12,20,20.50
2015,08,20,12,21,20.50
2015,08,20,12,22,20.50
2015,08,20,12,23,20.60
2015,08,20,12,24,20.70
2015,08,20,12,25,20.70
2015,08,20,12,26,20.70
2015,08,20,12,27,20.80
2015,08,20,12,28,20.80
2015,08,20,12,29,20.80
2015,08,20,12,30,20.80
2015,08,20,12,31,20.60
2015,08,20,12,32,20.50
2015,08,20,12,33,20.30
2015,08,20,12,34,20.10
2015,08,20,12,35,20.00
2015,08,20,12,36,20.00
2015,08,20,12,37,20.00
2015,08,20,12,38,20.10
2015,08,20,12,39,20.20
2015,08,20,12,40,20.30
2015,08,20,12,41,20.40
2015,08,20,12,42,20.60
2015,08,20,12,43,20.70
2015,08,20,12,44,20.70
2015,08,20,12,45,20.80
2015,08,20,12,46,20.90
2015,08,20,12,47,21.00
2015,08,20,12,48,21.00
2015,08,20,12,49,21.00
2015,08,20,12,50,21.00
2015,08,20,12,51,21.10
2015,08,20,12,52,21.20
2015,08,20,12,53,21.20
2015,08,20,12,54,21.20
2015,08,20,12,55,21.00
2015,08,20,12,56,20.90
2015,08,20,12,57,20.70
2015,08,20,12,58,20.60
2015,08,20,12,59,20.50
2015,08,20,13,00,20.50
2015,08,20,13,01,20.40
2015,08,20,13,02,20.40
2015,08,20,13,03,20.50
2015,08,20,13,04,20.60
2015,08,20,13,05,20.80
2015,08,20,13,06,21.00
2015,08,20,13,07,21.30
2015,08,20,13,08,21.50
2015,08,20,13,09,21.70
2015,08,20,13,10,21.80
2015,08,20,13,11,22.00
2015,08,20,13,12,22.10
2015,08,20,13,13,22.20
2015,08,20,13,14,22.30
2015,08,20,13,15,22.30
2015,08,20,13,16,22.30
2015,08,20,13,17,22.30
2015,08,20,13,18,22.20
2015,08,20,13,19,22.20
2015,08,20,13,20,22.20
2015,08,20,13,21,22.10
2015,08,20,13,22,22.20
2015,08,20,13,23,22.20
2015,08,20,13,24,22.30
2015,08,20,13,25,22.40
2015,08,20,13,26,22.50
2015,08,20,13,27,22.50
2015,08,20,13,28,22.60
2015,08,20,13,29,22.70
2015,08,20,13,30,22.80
2015,08,20,13,31,22.80
2015,08,20,13,32,22.70
2015,08,20,13,33,22.70
2015,08,20,13,34,22.60
2015,08,20,13,35,22.60
2015,08,20,13,36,22.50
2015,08,20,13,37,22.40
2015,08,20,13,38,22.40
2015,08,20,13,39,22.40
2015,08,20,13,40,22.40
2015,08,20,13,41,22.40
2015,08,20,13,42,22.30
2015,08,20,13,43,22.30
2015,08,20,13,44,22.30
2015,08,20,13,45,22.40
2015,08,20,13,46,22.40
2015,08,20,13,47,22.50
2015,08,20,13,48,22.60
2015,08,20,13,49,22.70
2015,08,20,13,50,22.70
2015,08,20,13,51,22.80
2015,08,20,13,52,22.80
2015,08,20,13,53,22.80
2015,08,20,13,54,22.80
2015,08,20,13,55,22.80
2015,08,20,13,56,22.80
2015,08,20,13,57,22.80
2015,08,20,13,58,22.80
2015,08,20,13,59,22.80
2015,08,20,14,00,22.70
2015,08,20,14,01,22.60
2015,08,20,14,02,22.60
2015,08,20,14,03,22.60
2015,08,20,14,04,22.60
2015,08,20,14,05,22.50
2015,08,20,14,06,22.40
2015,08,20,14,07,22.30
2015,08,20,14,08,22.30
2015,08,20,14,09,22.20
2015,08,20,14,10,22.20
2015,08,20,14,11,22.10
2015,08,20,14,12,22.20
2015,08,20,14,13,22.20
2015,08,20,14,14,22.30
2015,08,20,14,15,22.30
2015,08,20,14,16,22.30
2015,08,20,14,17,22.40
2015,08,20,14,18,22.40
2015,08,20,14,19,22.40
2015,08,20,14,20,22.40
2015,08,20,14,21,22.40
2015,08,20,14,22,22.40
2015,08,20,14,23,22.30
2015,08,20,14,24,22.20
2015,08,20,14,25,22.10
2015,08,20,14,26,22.00
2015,08,20,14,27,21.90
2015,08,20,14,28,21.90
2015,08,20,14,29,21.90
2015,08,20,14,30,22.00
2015,08,20,14,31,22.10
2015,08,20,14,32,22.10
2015,08,20,14,33,22.10
2015,08,20,14,34,22.20
2015,08,20,14,35,22.10
2015,08,20,14,36,22.10
2015,08,20,14,37,22.00
2015,08,20,14,38,22.00
2015,08,20,14,39,22.00
2015,08,20,14,40,22.00
2015,08,20,14,41,22.00
2015,08,20,14,42,22.10
2015,08,20,14,43,22.10
2015,08,20,14,44,22.10
2015,08,20,14,45,22.10
2015,08,20,14,46,22.10
2015,08,20,14,47,22.00
2015,08,20,14,48,21.90
2015,08,20,14,49,21.80
2015,08,20,14,50,21.80
2015,08,20,14,51,21.80
2015,08,20,14,52,21.80
2015,08,20,14,53,21.80
2015,08,20,14,54,21.80
2015,08,20,14,55,21.80
2015,08,20,14,56,21.90
2015,08,20,14,57,21.90
2015,08,20,14,58,21.90
2015,08,20,14,59,21.90
2015,08,20,15,00,21.90
2015,08,20,15,01,21.90
2015,08,20,15,02,21.90
2015,08,20,15,03,21.90
2015,08,20,15,04,22.00
2015,08,20,15,05,22.00
2015,08,20,15,06,22.00
2015,08,20,15,07,22.00
2015,08,20,15,08,21.90
2015,08,20,15,09,21.80
2015,08,20,15,10,21.70
2015,08,20,15,11,21.70
2015,08,20,15,12,21.60
2015,08,20,15,13,21.60
2015,08,20,15,14,21.60
2015,08,20,15,15,21.60
2015,08,20,15,16,21.50
2015,08,20,15,17,21.50
2015,08,20,15,18,21.40
2015,08,20,15,19,21.40
2015,08,20,15,20,21.30
2015,08,20,15,21,21.30
2015,08,20,15,22,21.20
2015,08,20,15,23,21.10
2015,08,20,15,24,21.10
2015,08,20,15,25,21.10
2015,08,20,15,26,21.10
2015,08,20,15,27,21.10
2015,08,20,15,28,21.10
2015,08,20,15,29,21.10
2015,08,20,15,30,21.10
2015,08,20,15,31,21.10
2015,08,20,15,32,21.10
2015,08,20,15,33,21.20
2015,08,20,15,34,21.20
2015,08,20,15,35,21.20
2015,08,20,15,36,21.20
2015,08,20,15,37,21.20
2015,08,20,15,38,21.20
2015,08,20,15,39,21.20
2015,08,20,15,40,21.20
2015,08,20,15,41,21.20
2015,08,20,15,42,21.20
2015,08,20,15,43,21.10
2015,08,20,15,44,21.10
2015,08,20,15,45,21.00
2015,08,20,15,46,20.90
2015,08,20,15,47,20.90
2015,08,20,15,48,20.80
2015,08,20,15,49,20.80
2015,08,20,15,50,20.70
2015,08,20,15,51,20.60
2015,08,20,15,52,20.60
2015,08,20,15,53,20.50
2015,08,20,15,54,20.40
2015,08,20,15,55,20.30
2015,08,20,15,56,20.30
2015,08,20,15,57,20.20
2015,08,20,15,58,20.20
2015,08,20,15,59,20.20
2015,08,20,16,00,20.20
2015,08,20,16,01,20.20
2015,08,20,16,02,20.20
2015,08,20,16,03,20.20
2015,08,20,16,04,20.30
2015,08,20,16,05,20.30
2015,08,20,16,06,20.30
2015,08,20,16,07,20.30
2015,08,20,16,08,20.30
2015,08,20,16,09,20.30
2015,08,20,16,10,20.30
2015,08,20,16,11,20.30
2015,08,20,16,12,20.30
2015,08,20,16,13,20.30
2015,08,20,16,14,20.30
2015,08,20,16,15,20.30
2015,08,20,16,16,20.30
2015,08,20,16,17,20.30
2015,08,20,16,18,20.40
2015,08,20,16,19,20.40
2015,08,20,16,20,20.50
2015,08,20,16,21,20.50
2015,08,20,16,22,20.40
2015,08,20,16,23,20.40
2015,08,20,16,24,20.40
2015,08,20,16,25,20.40
2015,08,20,16,26,20.40
2015,08,20,16,27,20.30
2015,08,20,16,28,20.30
2015,08,20,16,29,20.30
2015,08,20,16,30,20.30
2015,08,20,16,31,20.30
2015,08,20,16,32,20.30
2015,08,20,16,33,20.40
2015,08,20,16,34,20.40
2015,08,20,16,35,20.40
2015,08,20,16,36,20.40
2015,08,20,16,37,20.50
2015,08,20,16,38,20.50
2015,08,20,16,39,20.60
2015,08,20,16,40,20.60
2015,08,20,16,41,20.60
2015,08,20,16,42,20.70
2015,08,20,16,43,20.80
2015,08,20,16,44,20.80
2015,08,20,16,45,20.90
2015,08,20,16,46,20.90
2015,08,20,16,47,21.00
2015,08,20,16,48,21.10
2015,08,20,16,49,21.10
2015,08,20,16,50,21.20
2015,08,20,16,51,21.20
2015,08,20,16,52,21.20
2015,08,20,16,53,21.20
2015,08,20,16,54,21.20
2015,08,20,16,55,21.10
2015,08,20,16,56,21.10
2015,08,20,16,57,21.10
2015,08,20,16,58,21.10
2015,08,20,16,59,21.10
2015,08,20,17,00,21.10
2015,08,20,17,01,21.10
2015,08,20,17,02,21.00
2015,08,20,17,03,21.00
2015,08,20,17,04,21.00
2015,08,20,17,05,21.00
2015,08,20,17,06,21.00
2015,08,20,17,07,21.10
2015,08,20,17,08,21.10
2015,08,20,17,09,21.10
2015,08,20,17,10,21.10
2015,08,20,17,11,21.10
2015,08,20,17,12,21.10
2015,08,20,17,13,21.20
2015,08,20,17,14,21.20
2015,08,20,17,15,21.20
2015,08,20,17,16,21.20
2015,08,20,17,17,21.20
2015,08,20,17,18,21.20
2015,08,20,17,19,21.20